View from above orbital plane
|
View from above satellite
|
Ground track
|
The orbit data is extracted from the following two-line orbital elements,
1 39417U 13066B 19341.50174853 .00000170 00000-0 27679-4 0 9994
2 39417 97.5613 345.3390 0058663 189.2430 170.7709 14.81188541326473
Epoch (UTC): | 07 December 2019 12:02:31 |
Eccentricity: | 0.0058663 |
inclination: | 97.5613° |
perigee height: | 584 km |
apogee height: | 666 km |
right ascension of ascending node: | 345.3390° |
argument of perigee: | 189.2430° |
revolutions per day: | 14.81188541 |
mean anomaly at epoch: | 170.7709° |
orbit number at epoch: | 32647 |
The dashed part of the orbit path shows where the satellite is in the earth's shadow,
|
|